GW3805 Weather Reports


time (UTC)temp
C
wind
direction
speed
KPH
gust
KPH
rain 1hr
cm
rain 24hr
cm
rain mn
cm
humidity
%
barometer
mb
20260505100621 8 0 0.0 0.0 0.00 0.00 0.08 82 1010.8
20260505100121 8 332 0.0 0.0 0.00 0.00 0.08 82 1010.8
20260505095121 8 266 0.0 0.0 0.00 0.00 0.08 81 1010.8
20260505094121 8 316 0.0 0.0 0.00 0.00 0.08 82 1010.8
20260505093621 9 299 0.0 0.0 0.00 0.00 0.08 81 1010.5
20260505091121 9 340 0.0 0.0 0.00 0.00 0.08 79 1010.2
20260505090121 9 353 0.0 0.0 0.00 0.00 0.08 79 1009.8
20260505085121 9 2 0.0 0.0 0.00 0.00 0.08 79 1009.8
20260505084621 9 345 0.0 0.0 0.00 0.00 0.08 78 1009.8
20260505083621 9 319 0.0 0.0 0.00 0.00 0.08 78 1009.8
20260505083121 9 316 0.0 0.0 0.03 0.00 0.08 78 1009.8
20260505081621 9 298 0.0 0.0 0.03 0.00 0.08 78 1009.5
20260505080621 9 265 0.0 0.0 0.03 0.00 0.05 76 1009.1
20260505080121 9 18 0.0 0.0 0.03 0.00 0.05 77 1009.1
20260505075621 9 333 0.0 0.0 0.03 0.00 0.05 77 1009.1
20260505075121 9 315 0.0 0.0 0.03 0.00 0.05 77 1009.1
20260505074121 9 0 0.0 0.0 0.03 0.00 0.05 75 1009.1
20260505073621 9 333 0.0 0.0 0.03 0.00 0.05 74 1009.1
20260505072621 9 353 0.0 0.0 0.10 0.00 0.10 76 1009.1
20260505072121 9 33 0.0 0.0 0.08 0.00 0.10 76 1008.8
20260505071621 9 358 0.0 0.0 0.05 0.00 0.08 75 1009.1
20260505070621 9 310 0.0 0.0 0.05 0.00 0.05 72 1009.1
20260505070121 9 329 1.6 1.6 0.05 0.00 0.05 71 1009.1
20260505064621 10 31 1.6 1.6 0.03 0.00 0.03 69 1008.8
20260505063621 10 10 1.6 1.6 0.00 0.00 0.00 66 1008.8
20260505062121 10 15 3.2 3.2 0.00 0.00 0.00 59 1009.5
20260505061621 10 2 3.2 3.2 0.00 0.00 0.00 58 1009.8
20260505060621 10 15 3.2 3.2 0.00 0.00 0.00 58 1009.1
20260505055621 10 14 3.2 3.2 0.00 0.00 0.00 57 1009.1
20260505054621 11 24 4.8 4.8 0.00 0.00 0.00 57 1009.1
20260505054121 11 26 4.8 4.8 0.03 0.00 0.00 56 1009.1
20260505053621 11 24 4.8 4.8 0.05 0.00 0.00 56 1009.1
20260505052621 11 26 4.8 4.8 0.05 0.00 0.00 56 1008.8
20260505051621 11 29 4.8 4.8 0.05 0.00 0.00 55 1009.1
20260505050621 11 21 4.8 4.8 0.03 0.00 0.03 56 1009.1
20260505050121 11 21 4.8 4.8 0.03 0.00 0.03 56 1009.1
20260505041121 13 34 4.8 4.8 0.00 0.00 0.00 41 1009.1
20260505034121 13 30 6.4 6.4 0.00 0.00 0.00 43 1008.8
20260505033621 13 33 6.4 6.4 0.00 0.00 0.00 42 1008.1
20260505031121 13 24 6.4 6.4 0.00 0.00 0.00 41 1008.1
20260505030121 13 24 6.4 6.4 0.00 0.00 0.00 42 1008.1
20260505025121 13 32 6.4 6.4 0.00 0.00 0.00 42 1008.1
20260505024121 14 30 8.0 8.0 0.00 0.00 0.00 41 1007.5
20260505022621 14 33 8.0 8.0 0.00 0.00 0.00 42 1007.1
20260505022121 14 37 8.0 8.0 0.00 0.00 0.00 41 1007.1
20260505021121 15 38 8.0 8.0 0.00 0.00 0.00 42 1006.8
20260505020621 15 38 8.0 8.0 0.00 0.00 0.00 42 1007.1
20260505015621 15 37 8.0 8.0 0.00 0.00 0.00 40 1006.4
20260505014621 16 28 8.0 8.0 0.00 0.00 0.00 39 1006.4
20260505013621 16 32 8.0 8.0 0.00 0.00 0.00 38 1006.1
20260505013121 16 34 8.0 8.0 0.00 0.00 0.00 38 1006.1
20260505012121 16 36 8.0 8.0 0.00 0.00 0.00 36 1006.1
20260505011121 17 41 8.0 8.0 0.00 0.00 0.00 35 1005.8
20260505010121 18 27 8.0 8.0 0.00 0.00 0.00 34 1005.4
20260505005121 18 33 9.7 9.7 0.00 0.00 0.00 34 1005.1
20260505004621 18 28 8.0 8.0 0.00 0.00 0.00 33 1005.4
20260505003621 19 34 8.0 8.0 0.00 0.00 0.00 32 1005.1
20260505003121 20 24 8.0 8.0 0.00 0.00 0.00 33 1005.1
20260505002121 20 35 8.0 8.0 0.00 0.00 0.00 33 1004.7
20260505000621 20 20 8.0 8.0 0.00 0.00 0.00 32 1004.7
20260505000121 20 20 8.0 8.0 0.00 0.00 0.00 32 1004.7
20260504233621 21 15 8.0 8.0 0.00 0.00 0.00 32 1004.4
20260504232121 21 22 8.0 8.0 0.00 0.00 0.00 32 1004.1
20260504231621 22 33 8.0 8.0 0.00 0.00 0.00 30 1004.1
20260504231121 22 30 8.0 8.0 0.00 0.00 0.00 31 1004.1
20260504230137 22 26 6.4 6.4 0.00 0.00 0.00 31 1003.7